OBJECT F, 51951

Orbit data source: Space-Track

You're viewing an Uncataloged Satellite

Recently launched and/or uncataloged satellites may have evolving metadata. Metadata may include but not limited to: Owner, Maufacturer, Bus, Motor, and Mission.

OBJECT F, 51951 is a Chinese satellite in LEO that was launched on Sat, 05 Mar 2022 UTC via a CHANG ZHENG 2C launch vehicle from the Xichang Space Center, China (XSC). Unknown objects in Earth's orbit typically refer to objects detected orbiting the Earth but have not yet been identified or cataloged. These objects could be anything from previously untracked satellites, spent rocket stages, debris from satellite collisions, or even natural meteoroids temporarily captured by Earth's gravity.

Loading next visibility...
Identifier
51951, 2022-023F
Orbit
LEO
Country
Flag of CNCN / PRC
Related business
None
Manufacturer
Unknown
Mission
Operational Commercial Communications
Bus & Motor
Unknown
Mass
Unknown
Launch date (UTC)
2022-03-05 (4 years ago)
Launch vehicle
CHANG ZHENG 2C
Launch site
Xichang Space Center, China (XSC)
Object type
Unknown
Shape & HBR
Box + 1 Pan, 2.5 m
Radar Cross Section
3.313 m², Large (>1 m²)

Expand to show TLE details & history
Last TLE update: 23 hours ago

TLE from 23 hours ago
0 OBJECT F
1 51951U 22023F   26172.49251898  .00011620  00000-0  46343-3 0  9997
2 51951  63.4445 258.8449 0130911 342.2795  17.3772 15.17975719238367
Epoch: 2026-06-21T11:49Z
TLE epoch observation values (Epoch: 2026-06-21T11:49:13.639Z)
Latitude
-0°
Longitude
171.84606°
Altitude
427.892 km
Speed
7.703 km/s
True Right ascension
17h 15m 22s
True Declination
0° 00' 00"
Sunlit
Object was in full shadow at epoch
Visualization orbit readout
Latitude
Unknown
Longitude
Unknown
Altitude
Unknown
Speed
Unknown
Apparent Right ascension
Unknown
Apparent Declination
Unknown
Sunlit
N/A
Visualization observer readout
Local Sidereal Time
21:34:14
Azimuth
Unknown
Elevation
Unknown
Doppler factor
Unknown
Orbital elements
Apogee altitude
600.866 km
Perigee altitude
420.501 km
Semi-major axis
6,888.821 km
Eccentricity
0.01309
Inclination
63.4445°
RAAN
258.8449°
Arg. of periapsis
342.2795°
True anomaly
17.83233°
Mean anomaly
17.3772°
Eccentric anomaly
17.60405°
Mean motion
3.796 °/min
Orbital period
94.84 mins
BSTAR
0.00046343
Loading maneuver chart data...
Computing Atmospheric mass density...
Loading historical data...
Loading historical data...
Loading historical data...
Loading historical data...
Loading historical data...
Loading historical data...
Loading historical data...

Documentation

Showing up to 5 results
|